Location: *
(47.2969°N, 10.2930°E)
Time: 11:10:55
(UTC+00:00)

STARLINK-1222 - Pass Details

Date: 09 April 2020
Orbit: 376 x 383 km, 53.0° (Epoch: 26 May)

Event Time Altitude Azimuth Distance (km) Brightness Sun altitude
Rises 18:22:08 0° 298° (WNW) 2,270 9.0 -4.4°
Reaches altitude 10° 18:24:15 10° 304° (NW) 1,415 7.3 -4.8°
Maximum altitude 18:27:19 47° 20° (NNE) 523 3.5 -5.3°
Drops below altitude 10° 18:30:23 10° 96° (E) 1,411 5.1 -5.8°
Enters shadow 18:30:52 - 98° (E) 1,603 5.3 -5.9°
